When you browse on this site, cookies collect data to enhance your experience and personalize the content and advertising you see.
Visit our Privacy Policy to learn more. By continuing to use the site, you agree to this use of cookies and data.
  • In Romania
  • List of Countries
  • For 7 days
  • Water Temperature
  • Satellite Maps
  • Weather Map
  • Weather Widgets
  • user-avatar
    Login

    Hourly Weather Maloe Vishene

    Today, 18 January, Friday

    Time Temperature Precipitation Wind Pressure Humidity
    00:00 -2°C° 0.1 mm 6 mps 720 mmHg 85%
    01:00 -1°C° 0.1 mm 5 mps 721 mmHg 85%
    02:00 -1°C° 0 mm 4 mps 721 mmHg 87%
    03:00 -2°C° 0.1 mm 4 mps 721 mmHg 86%
    04:00 -2°C° 0.1 mm 4 mps 722 mmHg 85%
    05:00 -3°C° 0.1 mm 4 mps 723 mmHg 84%
    06:00 -4°C° 0 mm 4 mps 723 mmHg 85%
    07:00 -7°C° 0 mm 4 mps 724 mmHg 86%
    08:00 -7°C° 0 mm 3 mps 724 mmHg 89%
    09:00 -7°C° 0 mm 3 mps 725 mmHg 88%
    10:00 -7°C° 0 mm 3 mps 725 mmHg 87%
    11:00 -7°C° 0 mm 3 mps 726 mmHg 86%
    12:00 -7°C° 0 mm 3 mps 726 mmHg 87%
    13:00 -6°C° 0 mm 2 mps 726 mmHg 88%
    14:00 -6°C° 0 mm 2 mps 727 mmHg 89%
    15:00 -6°C° 0.2 mm 1 mps 726 mmHg 91%
    16:00 -6°C° 0.2 mm 1 mps 726 mmHg 94%
    17:00 -7°C° 0.2 mm 1 mps 726 mmHg 96%
    18:00 -7°C° 0.4 mm 1 mps 726 mmHg 95%
    19:00 -7°C° 0.4 mm 1 mps 727 mmHg 94%
    20:00 -9°C° 0.4 mm 2 mps 727 mmHg 93%
    21:00 -9°C° 0 mm 2 mps 727 mmHg 92%
    22:00 -10°C° 0 mm 2 mps 728 mmHg 92%
    23:00 -12°C° 0 mm 3 mps 729 mmHg 92%

    Tomorrow, 19 January, Saturday

    Time Temperature Precipitation Wind Pressure Humidity
    00:00 -13°C° 0 mm 3 mps 729 mmHg 92%
    01:00 -13°C° 0 mm 3 mps 729 mmHg 93%
    02:00 -14°C° 0 mm 3 mps 730 mmHg 93%
    03:00 -13°C° 0 mm 3 mps 730 mmHg 93%
    04:00 -14°C° 0 mm 4 mps 730 mmHg 93%
    05:00 -14°C° 0 mm 4 mps 730 mmHg 93%
    06:00 -12°C° 0 mm 4 mps 730 mmHg 92%
    07:00 -10°C° 0 mm 3 mps 731 mmHg 91%
    08:00 -9°C° 0 mm 3 mps 731 mmHg 90%
    09:00 -10°C° 0.1 mm 4 mps 731 mmHg 89%
    10:00 -9°C° 0.1 mm 4 mps 732 mmHg 87%
    11:00 -9°C° 0.1 mm 4 mps 732 mmHg 85%
    12:00 -10°C° 0 mm 4 mps 733 mmHg 85%
    13:00 -10°C° 0 mm 4 mps 733 mmHg 85%
    14:00 -10°C° 0 mm 3 mps 733 mmHg 85%
    15:00 -10°C° 0 mm 3 mps 733 mmHg 87%
    16:00 -12°C° 0 mm 3 mps 734 mmHg 89%
    17:00 -13°C° 0 mm 3 mps 734 mmHg 91%
    18:00 -13°C° 0 mm 3 mps 734 mmHg 92%
    19:00 -14°C° 0 mm 3 mps 734 mmHg 93%
    20:00 -13°C° 0 mm 2 mps 735 mmHg 94%
    21:00 -12°C° 0 mm 3 mps 735 mmHg 93%
    22:00 -10°C° 0 mm 3 mps 735 mmHg 92%
    23:00 -8°C° 0 mm 3 mps 735 mmHg 91%

    Day after tomorrow, 20 January, Sunday

    Time Temperature Precipitation Wind Pressure Humidity
    00:00 -8°C° 0 mm 3 mps 735 mmHg 90%
    01:00 -9°C° 0 mm 4 mps 735 mmHg 90%
    02:00 -9°C° 0 mm 4 mps 735 mmHg 89%
    03:00 -10°C° 0 mm 5 mps 734 mmHg 88%
    04:00 -10°C° 0 mm 5 mps 734 mmHg 87%
    05:00 -11°C° 0 mm 5 mps 733 mmHg 86%
    06:00 -10°C° 0.1 mm 5 mps 733 mmHg 86%
    07:00 -10°C° 0.1 mm 6 mps 732 mmHg 86%
    08:00 -9°C° 0.1 mm 6 mps 732 mmHg 86%
    09:00 -8°C° 0.3 mm 6 mps 732 mmHg 87%
    10:00 -6°C° 0.3 mm 6 mps 731 mmHg 87%
    11:00 -5°C° 0.3 mm 6 mps 731 mmHg 88%
    12:00 -6°C° 0.3 mm 5 mps 731 mmHg 87%
    13:00 -6°C° 0.3 mm 5 mps 731 mmHg 86%
    14:00 -7°C° 0.3 mm 5 mps 731 mmHg 85%
    15:00 -8°C° 0.1 mm 4 mps 731 mmHg 86%
    16:00 -9°C° 0.1 mm 4 mps 731 mmHg 86%
    17:00 -9°C° 0.1 mm 3 mps 732 mmHg 87%
    18:00 -9°C° 0 mm 3 mps 732 mmHg 88%
    19:00 -10°C° 0 mm 3 mps 733 mmHg 89%
    20:00 -11°C° 0 mm 4 mps 733 mmHg 90%
    21:00 -12°C° 0 mm 3 mps 733 mmHg 90%
    22:00 -13°C° 0 mm 3 mps 734 mmHg 90%
    23:00 -14°C° 0 mm 3 mps 734 mmHg 91%

    21 January, Monday

    Time Temperature Precipitation Wind Pressure Humidity
    00:00 -15°C° 0 mm 3 mps 734 mmHg 92%
    01:00 -15°C° 0 mm 3 mps 734 mmHg 92%
    02:00 -14°C° 0 mm 2 mps 734 mmHg 93%
    03:00 -15°C° 0 mm 2 mps 734 mmHg 93%
    04:00 -15°C° 0 mm 2 mps 734 mmHg 94%
    05:00 -15°C° 0 mm 2 mps 734 mmHg 95%
    06:00 -16°C° 0 mm 2 mps 735 mmHg 95%
    07:00 -16°C° 0 mm 2 mps 735 mmHg 95%
    08:00 -16°C° 0 mm 2 mps 735 mmHg 96%
    09:00 -15°C° 0 mm 2 mps 735 mmHg 93%
    10:00 -15°C° 0 mm 3 mps 735 mmHg 91%
    11:00 -14°C° 0 mm 3 mps 736 mmHg 88%
    12:00 -14°C° 0.1 mm 3 mps 736 mmHg 87%
    13:00 -15°C° 0.1 mm 3 mps 736 mmHg 86%
    14:00 -15°C° 0.1 mm 3 mps 736 mmHg 85%
    15:00 -16°C° 0 mm 3 mps 736 mmHg 88%
    16:00 -17°C° 0 mm 3 mps 737 mmHg 91%
    17:00 -17°C° 0 mm 2 mps 737 mmHg 93%
    18:00 -18°C° 0 mm 2 mps 737 mmHg 94%
    19:00 -19°C° 0 mm 2 mps 737 mmHg 95%
    20:00 -20°C° 0 mm 2 mps 737 mmHg 96%
    21:00 -20°C° 0 mm 2 mps 738 mmHg 96%
    22:00 -20°C° 0 mm 2 mps 738 mmHg 97%
    23:00 -21°C° 0 mm 2 mps 738 mmHg 97%

    22 January, Tuesday

    Time Temperature Precipitation Wind Pressure Humidity
    00:00 -21°C° 0 mm 2 mps 738 mmHg 97%
    01:00 -21°C° 0 mm 2 mps 738 mmHg 98%
    02:00 -21°C° 0 mm 2 mps 738 mmHg 98%
    03:00 -21°C° 0 mm 2 mps 738 mmHg 98%
    04:00 -21°C° 0 mm 2 mps 738 mmHg 98%
    05:00 -19°C° 0 mm 1 mps 738 mmHg 98%
    06:00 -19°C° 0 mm 1 mps 738 mmHg 98%
    07:00 -19°C° 0 mm 1 mps 739 mmHg 98%
    08:00 -19°C° 0 mm 1 mps 739 mmHg 98%
    09:00 -18°C° 0 mm 1 mps 739 mmHg 97%
    10:00 -17°C° 0 mm 1 mps 739 mmHg 96%
    11:00 -16°C° 0 mm 1 mps 739 mmHg 95%
    12:00 -15°C° 0 mm 1 mps 739 mmHg 95%
    13:00 -15°C° 0 mm 0 mps 739 mmHg 95%
    14:00 -14°C° 0 mm 0 mps 739 mmHg 94%
    15:00 -15°C° 0 mm 0 mps 739 mmHg 96%
    16:00 -17°C° 0 mm 0 mps 739 mmHg 97%
    17:00 -18°C° 0 mm 0 mps 739 mmHg 98%
    18:00 -18°C° 0 mm 0 mps 739 mmHg 99%
    19:00 -18°C° 0 mm 1 mps 739 mmHg 99%
    20:00 -19°C° 0 mm 1 mps 739 mmHg 99%
    21:00 -19°C° 0 mm 1 mps 739 mmHg 99%
    22:00 -19°C° 0 mm 1 mps 739 mmHg 99%
    23:00 -18°C° 0 mm 1 mps 739 mmHg 99%

    23 January, Wednesday

    Time Temperature Precipitation Wind Pressure Humidity
    00:00 -18°C° 0 mm 1 mps 739 mmHg 99%
    01:00 -18°C° 0 mm 1 mps 739 mmHg 98%
    02:00 -19°C° 0 mm 2 mps 739 mmHg 98%
    03:00 -18°C° 0 mm 2 mps 738 mmHg 98%
    04:00 -17°C° 0 mm 2 mps 738 mmHg 97%
    05:00 -16°C° 0 mm 2 mps 738 mmHg 97%
    06:00 -15°C° 0 mm 2 mps 738 mmHg 96%
    07:00 -16°C° 0 mm 3 mps 738 mmHg 96%
    08:00 -15°C° 0 mm 3 mps 738 mmHg 96%
    09:00 -14°C° 0 mm 3 mps 738 mmHg 95%
    10:00 -13°C° 0 mm 3 mps 738 mmHg 94%
    11:00 -12°C° 0 mm 4 mps 738 mmHg 93%
    12:00 -11°C° 0 mm 4 mps 738 mmHg 91%
    13:00 -11°C° 0 mm 4 mps 738 mmHg 90%
    14:00 -10°C° 0 mm 4 mps 738 mmHg 89%
    15:00 -10°C° 0 mm 3 mps 738 mmHg 90%
    16:00 -13°C° 0 mm 3 mps 738 mmHg 91%
    17:00 -14°C° 0 mm 3 mps 738 mmHg 92%
    18:00 -14°C° 0 mm 3 mps 738 mmHg 92%
    19:00 -14°C° 0 mm 3 mps 738 mmHg 92%
    20:00 -15°C° 0 mm 3 mps 738 mmHg 93%
    21:00 -14°C° 0 mm 3 mps 739 mmHg 92%
    22:00 -13°C° 0 mm 3 mps 739 mmHg 92%
    23:00 -13°C° 0 mm 3 mps 739 mmHg 92%
    Show more